Tracking 30157 objects as of 13-Feb-2025
HD Live streaming from Space Station
objects crossing your sky now

STARLINK-4349

Track STARLINK-4349 now!
10-day predictions
STARLINK-4349 is classified as:


NORAD ID: 53044
Int'l Code: 2022-077B
Perigee: 569.4 km
Apogee: 571.0 km
Inclination: 97.7 °
Period: 95.9 minutes
Semi major axis: 6941 km
RCS: Unknown
Launch date: July 11, 2022
Source: United States (US)
Launch site: AIR FORCE WESTERN TEST RANGE (AFWTR)
Your satellite tracking list
Your tracking list is empty




NASA's NSSDC Master Catalog

Two Line Element Set (TLE):
1 53044U 22077B   25043.78939000  .00000265  00000-0  25248-4 0  9992
2 53044  97.6570 227.1937 0001152  66.1531 293.9814 15.01256266143002
Source of the keplerian elements: AFSPC